www.pogodaiklimat.ru

Погода и климат >> Архив погоды >> Россия >> Приморский край >> Посьет


АРХИВ ПОГОДЫ в Посьете

Время (UTC), дата Ветер
(напр.,м/с)
 
Видим.   Явления Облачность Т
(С)
Тd
(С)
f
(%)
Тe
(С)
Тes
(С)
Комфортность P
(гПа)
Po
(гПа)
Тmin
(С)
Tmax
(С)
R
(мм)
R24
(мм)
S
(см)
06 17.07 ЮВ 3 20 км {морось} 10/10 600 м
[Sc]
+21.2 +19.2 88 +26 +26 душно 1010.2 1005.7
09 17.07 ЮВ 2 20 км 10/10 600 м
[Sc]
+21.0 +19.0 88 +26 +26 душно 1009.9 1005.3 +22.5 0.0
12 17.07 В 3 20 км 10/10 600 м
[Sc]
+19.1 +18.8 98 +21 +21 комфорт 1010.5 1005.9
15 17.07 ЮВ 1 10 км слаб. морось 10/10 300 м
[St]
+19.1 +19.1 100 +22 +22 комфорт 1010.4 1005.8
18 17.07 штиль 0 500 м туман ?/? +19.1 +19.1 100 +21 +21 комфорт 1009.3 1004.7
21 17.07 ЮЗ 1 200 м туман ?/? +19.2 +19.2 100 +22 +22 комфорт 1009.7 1005.2 +19.0 0.1
00 18.07 ЮВ 1 20 км в посл. час туман {дождь} 10/10 600 м
[Sc]
+20.7 +20.7 100 +27 +27 душно 1008.9 1004.4
03 18.07 ЮЗ 1 20 км 8/1 600 м
[Cu hum Ci sp]
+23.1 +20.4 85 +30 +47 очень
душно
1008.6 1004.1
06 18.07 ЮВ 4 20 км 4/1 600 м
[Sc Ci sp]
+22.4 +20.3 88 +29 +36 очень
душно
1007.1 1002.6
09 18.07 В 4 20 км 8/0
[Ac lent Ci sp]
+20.7 +19.6 93 +25 +26 комфорт 1006.6 1002.0 +24.8 0.0
12 18.07 СВ 3 20 км 10/10 300 м
[St]
+19.4 +19.4 100 +22 +22 комфорт 1007.6 1003.0
15 18.07 В 2 500 м туман ?/? +19.2 +19.2 100 +22 +22 комфорт 1007.5 1003.0
18 18.07 СВ 1 500 м туман ?/? +19.7 +19.7 100 +24 +24 комфорт 1007.9 1003.3
21 18.07 штиль 0 500 м туман ?/? +19.7 +19.7 100 +23 +23 комфорт 1008.0 1003.4 +19.2
00 19.07 ЮЗ 2 10 км {туман} 10/10 300 м
[St]
+21.4 +21.4 100 +27 +27 душно 1008.6 1004.1
03 19.07 Ю 2 20 км ясно +25.3 +21.7 80 +32 +51 опасность
солнечного
удара
1008.2 1003.7
06 19.07 ЮВ 3 20 км ясно +25.0 +21.5 81 +32 +43 очень
душно
1007.5 1003.0
09 19.07 В 4 4000 м дымка 8/0
[Cs]
+21.0 +20.2 95 +26 +27 душно 1007.6 1003.0 +26.8
12 19.07 В 3 500 м туман ?/? +19.6 +19.6 100 +23 +23 комфорт 1009.6 1005.1
15 19.07 ЮВ 2 500 м туман ?/? +20.3 +20.3 100 +25 +25 комфорт 1009.6 1005.1
18 19.07 В 2 500 м ?/? +20.5 +20.5 100 +26 +26 душно 1009.8 1005.2
21 19.07 В 2 500 м туман ?/? +20.7 +20.7 100 +26 +26 душно 1010.9 1006.3 +19.6
00 20.07 ЮВ 3 10 км {туман} 10/10 300 м
[St]
+20.9 +20.3 96 +26 +26 душно 1011.6 1007.0
03 20.07 ЮВ 4 20 км 10/10 300 м
[St]
+23.0 +20.3 85 +30 +30 очень
душно
1011.6 1007.1
06 20.07 В 5 4000 м морось 10/10 300 м
[St]
+20.9 +20.9 100 +26 +26 душно 1010.8 1006.2
09 20.07 В 2 500 м слаб. морось {туман} туман ?/? +20.8 +20.8 100 +27 +27 душно 1010.2 1005.7 +24.3 1
12 20.07 В 3 500 м туман ?/? +20.9 +20.9 100 +27 +27 душно 1010.7 1006.2
15 20.07 ЮВ 4 500 м туман ?/? +21.0 +21.0 100 +27 +27 душно 1010.5 1005.9
18 20.07 В 3 500 м слаб. морось {туман} ?/? +20.9 +20.9 100 +27 +27 душно 1010.0 1005.5
21 20.07 В 5 20 км {дождь, морось} 8/5 600 м
[Sc Ac lent Ci sp]
+21.3 +21.3 100 +27 +27 душно 1008.9 1004.4 +20.7 1
00 21.07 В 6
{11}
20 км {дождь, морось} 10/10 300 м
[St]
+21.6 +20.9 96 +27 +27 душно 1008.5 1004.0
03 21.07 В 8-12
{14}
20 км 10/10 600 м
[Sc]
+21.0 +20.1 95 +26 +26 душно 1007.5 1003.0
06 21.07 В 8-12
{15}
4000 м дождь 10/10 300 м
[Frnb Ns]
+20.2 +20.2 100 +24 +24 комфорт 1005.5 1001.0
09 21.07 В 8-13
{14}
4000 м дождь 10/10 200 м
[Frnb Ns]
+19.5 +19.5 100 +21 +21 комфорт 1003.4 998.9 +22.3 24
12 21.07 В 8-13
{15}
4000 м дождь 10/10 200 м
[Frnb Ns]
+19.2 +19.2 100 +21 +21 комфорт 1001.6 997.1
15 21.07 В 8-13
{16}
4000 м дождь 10/10 200 м
[Frnb Ns]
+19.0 +19.0 100 +20 +20 998.5 994.0
18 21.07 СВ 4
{14}
4000 м дождь 10/10 200 м
[Frnb Ns]
+18.4 +18.4 100 +19 +19 996.7 992.1
21 21.07 СЗ 2 10 км слаб. дождь 10/10 300 м
[Frnb Ns]
+19.5 +19.5 100 +23 +23 комфорт 996.5 991.9 +18.4 44
00 22.07 З 1 20 км {дождь, морось} 8/0
[Ac trans]
+21.4 +21.4 100 +27 +34 душно 997.4 992.9
03 22.07 З 4 10 км слаб. морось 10/10 300 м
[St]
+23.2 +22.2 94 +32 +32 очень
душно
997.7 993.2
06 22.07 З 3 4000 м дождь {морось} 10/10 300 м
[Frnb Ns]
+22.7 +22.4 98 +31 +31 очень
душно
998.1 993.6
09 22.07 В 3 10 км {дождь} 10/10 600 м
[Sc]
+21.1 +21.1 100 +26 +26 душно 999.4 994.9 +23.6 16
12 22.07 Ю 1 4000 м дымка {дождь} 8/0
[Ac lent Ci sp]
+19.9 +19.9 100 +24 +24 комфорт 1001.5 997.0
15 22.07 СВ 1 4000 м дымка 3/0
[Ci sp]
+19.8 +19.8 100 +24 +24 комфорт 1001.8 997.3
18 22.07 З 1 200 м туман ?/? +20.0 +20.0 100 +25 +25 комфорт 1001.8 997.3
21 22.07 З 1 200 м туман ?/? +20.1 +20.1 100 +25 +25 комфорт 1002.6 998.1 +19.6
00 23.07 ЮЗ 1 200 м туман ?/? +21.5 +21.5 100 +28 +28 очень
душно
1002.7 998.2
03 23.07 ЮЗ 1 20 км {туман} 1/0
[Ci fib]
+27.6 +24.2 82 +39 +60 опасность
солнечного
удара
1001.3 996.9
06 23.07 Ю 2 20 км 3/0
[Cc]
+27.5 +23.4 78 +37 +49 очень
душно
1000.8 996.4
09 23.07 В 3 20 км 5/0
[Ac trans Cs]
+24.3 +21.7 85 +31 +32 очень
душно
1001.2 996.7 +28.9
12 23.07 В 3 20 км 9/0
[Ac und]
+21.7 +21.0 96 +28 +28 душно 1002.0 997.5
15 23.07 СВ 2 20 км 3/0 200 м
[St]
+21.5 +21.1 98 +27 +27 душно 1002.7 998.2
18 23.07 В 5 20 км 9/0
[Cs]
+21.4 +21.0 98 +27 +27 душно 1002.4 997.9
21 23.07 СВ 3 20 км 9/0
[]
+21.0 +21.0 100 +27 +27 душно 1002.2 997.7 +20.6
00 24.07 Ю 2 20 км 9/0
[Ac trans]
+22.4 +21.0 92 +29 +34 очень
душно
1003.1 998.6
03 24.07 ЮВ 3 20 км 10/10 300 м
[St]
+23.4 +22.0 92 +32 +32 очень
душно
1002.6 998.1

 

Местоположение метеостанции Посьет (Приморский край, Россия): широта 42.65 долгота 130.80 высота над уровнем моря 39 м.

В архиве по умолчанию представлена погода в Посьете за последнюю неделю. Архивные данные за месяц целиком и за предыдущие месяцы, начиная с января 2011 года, Вы можете получить, выбрав интересующий диапазон дат из раскрывающегося списка и нажав кнопку "Ввод!".


*Определитесь, кто Вы:
робот инопланетянин человек

Внимание! Время в таблицах - всемирное. Для получения местного времени необходимо прибавить поправку, которая равна 10 ч.

Смотрите также архив погоды в соседних городах и на ближайших метеорологических станциях:

Погода в Гамове (Приморский край, Россия) (36 км)
Погода в Сонбонге (КНДР) (49 км)
Погода в Барабаше (Приморский край, Россия) (78 км)
Погода на Мысе Назимова (Приморский край, Россия) (100 км)
Погода в Владивостоке (Приморский край, Россия) (104 км)
Погода в Яньцзи (Гирин, Китай) (109 км)
Погода в Чхонджине (КНДР) (127 км)
Погода в Полтавке (Приморский край, Россия) (159 км)
Погода в Тимирязевском (Приморский край, Россия) (163 км)
Погода в Многоудобном (Приморский край, Россия) (164 км)

Пояснения к столбцам:

Ветер - указаны скорость ветра в м/с - средняя за 10 мин, порывы в срок и между сроками (в фигурных скобках) и направление, откуда дует ветер: С - северный, СВ - северо-восточный, В - восточный, ЮВ - юго-восточный, Ю - южный, ЮЗ - юго-западный, З - западный, СЗ - северо-западный.
Видимость - горизонтальная дальность видимости в метрах или километрах. При видимости от 1 до 10 км при отсутствии осадков обычно наблюдается дымка, при ухудшении видимости до 1 км и менее - туман. В сухую погоду видимость может ухудшаться дымом, пылью или мглою.
Явления - указаны атмосферные явления, наблюдавшиеся в срок или в последний час перед сроком; фигурными скобками обозначены явления, наблюдавшиеся между сроками (за 1-3 часа до срока); квадратными скобками обозначены град или гололедные отложения с указанием их диаметра в мм.
Облачность - указаны через наклонную черту общая и нижняя облачность в баллах и высота нижней границы облаков в метрах; квадратными скобками обозначены формы облаков: Ci - перистые, Cs - перисто-слоистые, Cc - перисто-кучевые, Ac - высококучевые, As - высокослоистые, Sc - слоисто-кучевые, Ns - слоисто-дождевые, Cu - кучевые, Cb - кучево-дождевые. Подробнее классификацию облаков см. в Атласе облаков (PDF).
T - Температура воздуха - температура, измеренная на высоте 2 м над землей.
Td - Температура точки росы - температура, при понижении до которой содержащийся в воздухе водяной пар достигнет насыщения.
f - Относительная влажность воздуха - влажноcть воздуха, измеренная на высоте 2 м над землей.
Te - Эффективная температура - температура, которую ощущает одетый по сезону человек в тени. Характеристика душности погоды. При расчете учитывается влияние влажности воздуха и скорости ветра на теплоощущения человека.
Tes - Эффективная температура на солнце - температура, которую ощущает человек, с поправкой на солнечный нагрев. Характеристика знойности погоды. Зависит от высоты солнца над горизонтом, облачности и скорости ветра. Ночью, в пасмурную погоду, а также при ветре 12 м/с и более поправка равна нулю.
P - Атмосферное давление - приведенное к уровню моря атмосферное давление.
Po - Атмосферное давление - измеренное на уровне метеостанции атмосферное давление.
Tmin - Минимальная температура - минимум температуры воздуха на высоте 2 м над землей.
Tmax - Максимальная температура - максимум температуры воздуха на высоте 2 м над землей.
R - Количество осадков - Количество выпавших осадков за период времени, мм. При наведении курсора мыши на число - период времени, за который выпало указанное количество осадков.
R24 - Количество осадков - Количество выпавших осадков за 24 часа, мм.
S - Снежный покров - Высота снежного покрова, см. При наведении курсора мыши на число - состояние снежного покрова и степень покрытия местности в баллах.